Location: Unspecified
(0.0000°N, 0.0000°E)
Time: 23:12:45
(UTC+00:00)

Vanguard 2 - Pass Details

Date: 01 October 2020
Orbit: 554 x 2937 km, 32.9° (Epoch: 28 October)

Event Time Altitude Azimuth Distance (km) Brightness Sun altitude
Rises 16:08:59 0° 242° (WSW) 4,355 12.4 25.1°
Reaches altitude 10° 16:13:51 10° 217° (SW) 3,884 11.8 23.9°
Maximum altitude 16:18:43 14° 189° (S) 4,033 11.5 22.6°
Drops below altitude 10° 16:24:36 10° 162° (SSE) 4,839 11.5 21.2°
Sets 16:32:29 0° 140° (SE) 6,361 11.9 19.2°
